Wind_Speed
27 27 28 29 30 31 32 32 33 34 34 34 35 36 37 38 38 39 40 41 42 43 45 46 47 47 48 49 49 50 50 50 51 51 51 51 51 51 51 50 50 50 49
29 29 30 31 31 32 32 33 34 34 35 35 36 36 37 38 39 40 41 42 43 44 45 46 47 48 49 50 51 51 52 53 53 53 54 54 54 54 54 53 53 53 53
30 31 32 33 33 33 34 34 35 35 36 36 36 37 37 38 39 40 41 42 43 44 45 46 47 48 49 50 50 51 52 53 53 54 54 55 55 55 55 55 55 55 55
32 32 33 34 34 35 35 36 36 37 37 37 38 38 38 38 39 40 41 42 43 44 45 46 47 48 49 50 50 51 52 52 53 53 54 55 55 56 56 57 57 57 57
33 33 34 35 35 36 36 36 36 36 36 37 36 37 37 38 39 40 41 41 42 43 44 46 47 48 49 50 51 52 53 54 55 55 56 57 57 57 58 58 58 59 59
33 34 35 36 36 36 36 36 36 36 36 36 36 36 37 37 39 39 40 41 42 43 44 46 48 49 50 52 53 54 55 56 57 58 58 59 59 60 60 61 61 61 62
34 34 35 36 36 36 36 36 35 36 36 37 37 36 36 37 39 39 41 43 44 46 47 49 50 52 53 55 56 57 59 60 61 62 63 63 64 64 64 65 65 65 66
35 35 36 36 36 36 36 36 37 37 39 40 40 39 39 40 42 43 45 47 49 50 52 54 55 56 58 59 61 62 64 65 66 67 68 68 69 69 69 69 69 69 70
36 36 36 37 37 37 38 39 40 40 41 43 44 45 45 45 45 46 48 50 53 55 57 59 60 62 63 64 65 67 68 69 70 72 73 73 74 74 74 74 74 74 74
38 38 38 38 39 40 41 42 43 44 44 46 48 50 52 53 53 52 51 53 55 57 59 62 64 66 67 69 70 71 72 73 74 75 76 77 78 78 79 79 79 79 79
39 40 41 41 41 42 43 44 46 47 48 49 51 53 55 57 59 61 60 58 59 61 63 65 67 69 71 73 74 75 76 77 78 79 79 80 81 82 82 83 83 83 83
41 41 42 43 44 44 46 47 48 50 51 53 55 56 58 60 62 65 66 66 65 65 66 67 69 71 73 75 77 79 80 81 82 83 83 84 84 85 86 86 87 87 87
42 43 44 45 46 47 48 49 51 52 54 56 57 59 61 63 65 67 69 70 71 70 70 70 72 74 76 78 80 82 84 85 86 87 87 88 88 88 89 89 89 89 89
44 45 46 47 48 49 50 52 53 55 57 58 60 62 63 65 67 69 72 74 75 74 74 74 76 78 80 82 84 86 87 88 89 90 90 90 90 90 90 90 90 90 90
46 47 47 48 50 51 53 54 55 57 59 61 62 64 65 67 69 72 74 77 79 79 77 77 80 82 85 87 88 89 90 90 90 90 90 89 89 88 88 87 87 87 87
48 49 50 51 52 53 54 56 58 60 61 62 64 65 67 69 72 73 76 78 80 83 83 81 84 86 89 90 90 90 89 88 86 85 84 83 81 80 79 78 77 77 77
50 51 52 53 54 55 57 58 60 61 62 64 66 68 70 72 73 75 78 80 82 85 87 85 86 88 89 89 88 87 84 82 79 76 74 72 69 67 66 65 65 64 65
52 53 54 55 56 58 59 60 61 63 64 66 68 70 72 74 75 78 80 82 84 86 89 88 86 86 85 84 82 80 76 73 69 66 63 60 58 56 55 55 54 55 55
54 55 56 57 58 59 60 62 63 65 66 69 71 72 74 76 78 80 82 84 85 87 88 88 85 82 79 76 73 70 67 64 60 57 54 52 51 50 50 50 50 50 50
56 57 58 59 59 61 62 64 66 67 69 71 73 74 76 79 80 82 83 85 86 86 85 83 80 75 70 67 64 61 58 56 53 51 49 48 48 47 46 46 46 46 47
58 59 59 60 61 63 65 67 68 70 72 73 75 77 79 80 82 84 85 85 84 83 80 77 72 66 61 58 56 54 51 49 47 46 46 45 45 44 43 43 43 43 43
58 59 60 62 63 65 68 70 72 73 74 76 78 79 81 82 83 84 84 83 81 78 74 69 64 59 55 52 50 48 46 44 42 42 42 41 41 41 41 41 41 40 40
59 60 62 64 66 68 71 73 74 75 77 78 80 82 83 83 83 82 81 79 75 71 67 62 57 53 50 47 45 43 42 41 39 38 38 37 38 39 40 40 40 39 38
61 62 64 66 69 71 74 75 76 78 79 81 82 83 83 82 82 80 77 73 68 63 59 56 52 48 46 43 42 41 39 38 35 35 35 34 35 36 38 39 39 38 37
62 64 67 69 71 73 76 78 80 81 82 82 83 83 82 81 78 76 72 66 60 55 52 49 47 44 42 41 40 38 37 35 33 32 33 34 33 34 35 36 37 36 35
65 67 69 72 75 77 79 81 83 84 84 83 82 80 79 77 73 68 63 58 52 48 45 43 41 40 39 38 37 36 35 34 33 31 31 32 32 32 31 33 34 33 33
Wind_Direction
288 286 285 284 283 282 281 280 279 278 276 275 275 274 274 273 273 272 272 271 271 271 270 270 270 269 269 269 269 269 269 269 270 270 270 270 271 271 271 271 271 272 272
289 287 286 284 283 282 282 281 280 280 279 278 277 276 276 275 275 275 274 273 273 272 272 272 272 271 271 270 270 270 270 270 270 270 270 270 270 270 270 270 270 270 271
288 287 285 284 283 282 281 280 280 279 278 278 278 277 276 276 276 276 275 275 275 275 274 274 274 273 273 272 272 272 271 271 271 271 271 270 270 270 270 270 270 270 270
288 287 286 284 284 283 282 281 280 279 278 277 277 276 276 276 276 276 276 276 276 276 276 276 276 275 275 275 274 274 273 272 272 271 271 271 271 270 270 270 270 270 270
289 288 287 286 285 284 283 282 280 279 278 278 277 277 277 277 277 277 277 277 277 277 277 277 277 276 276 276 275 275 275 274 273 273 272 271 271 271 271 270 270 270 269
290 289 288 287 286 285 283 282 280 279 278 278 278 278 278 278 278 278 278 278 278 278 278 278 278 278 277 277 277 276 276 275 275 274 273 273 272 271 271 270 270 269 269
291 290 289 288 286 285 283 282 281 280 280 279 278 278 278 279 279 279 279 279 279 279 279 279 279 279 278 278 278 277 277 276 276 275 274 274 273 272 271 271 270 269 268
291 291 290 289 286 284 283 282 282 282 282 281 280 278 277 278 280 281 282 282 282 282 282 281 281 280 280 279 279 278 278 277 277 276 275 275 274 273 272 271 270 269 268
292 291 290 288 286 284 283 283 283 283 283 283 283 282 280 277 276 278 280 281 282 283 283 283 282 282 281 280 279 278 278 277 277 276 276 275 274 273 272 271 270 269 267
291 290 289 288 287 286 284 284 284 284 284 284 285 285 285 284 282 279 278 280 281 282 282 282 283 282 282 281 280 279 279 278 277 276 276 275 274 274 272 271 270 269 267
291 290 289 288 287 287 286 285 285 285 285 285 285 286 287 287 287 286 284 283 283 283 284 284 284 284 283 283 282 281 280 279 278 277 276 275 274 273 272 271 270 269 267
292 290 289 288 287 287 287 287 287 287 287 287 288 288 288 289 289 289 288 287 286 286 286 286 286 285 285 284 283 283 282 281 279 278 277 276 274 273 272 271 270 269 268
292 291 290 289 288 287 287 288 288 288 288 289 290 290 290 291 291 290 290 289 288 288 288 288 288 288 287 286 285 284 283 282 281 280 278 277 276 274 273 271 270 269 267
293 292 291 290 289 289 289 289 289 289 290 291 291 291 292 292 292 292 292 291 290 290 290 290 290 290 289 288 288 286 285 284 283 282 280 279 277 275 273 272 270 268 267
293 293 292 291 290 290 290 290 291 291 292 292 293 293 293 293 294 294 294 294 293 292 290 291 291 291 291 290 289 288 287 286 284 283 281 280 278 276 274 272 270 268 266
294 293 293 292 291 291 292 292 292 293 293 293 294 294 294 295 295 295 295 295 295 294 293 293 293 293 292 292 291 289 288 287 285 284 282 280 278 276 274 272 270 268 266
294 294 293 293 292 292 293 293 293 294 294 295 295 296 296 296 296 297 297 297 297 297 296 296 295 295 294 292 291 290 289 287 285 283 281 280 278 275 273 271 269 267 265
294 294 293 293 293 294 294 295 295 295 296 297 297 298 298 298 299 299 299 299 299 298 298 298 297 296 294 293 291 290 288 287 285 283 281 279 276 274 272 270 269 267 265
295 294 294 295 295 295 296 296 297 298 298 299 300 300 300 300 300 300 300 300 300 299 299 298 298 296 294 293 291 289 288 286 285 283 280 278 276 273 272 270 268 266 265
295 295 296 296 297 297 298 298 299 300 301 301 302 302 302 301 301 301 301 301 300 300 299 299 298 296 294 292 290 288 286 285 284 282 280 277 275 273 272 270 268 266 265
296 297 297 298 299 299 300 301 301 302 302 302 302 303 303 303 303 303 302 302 301 300 299 298 297 296 294 291 289 287 285 283 282 280 279 278 276 274 272 270 269 267 265
298 298 299 299 300 301 302 303 303 303 304 304 304 304 304 304 304 303 303 302 301 300 299 298 296 295 293 291 288 286 284 282 280 278 277 276 275 273 272 271 270 268 267
299 299 300 301 302 303 303 304 304 305 305 305 305 305 305 304 304 303 302 302 301 299 298 296 295 294 292 290 288 286 284 283 281 278 276 275 273 273 272 272 271 269 268
300 301 302 303 303 304 304 305 305 305 306 306 306 306 305 305 304 303 302 301 299 297 295 295 294 294 292 290 288 286 285 283 281 279 278 276 273 272 271 271 270 269 267
302 303 303 304 304 305 305 305 306 306 306 307 307 306 305 304 303 302 301 299 297 295 293 293 293 292 290 289 288 286 285 283 281 280 279 278 275 272 271 270 269 268 267
303 304 305 305 305 306 306 306 306 307 307 307 307 306 305 304 303 301 300 298 296 294 292 292 291 291 290 288 287 286 285 284 283 281 280 279 277 274 271 269 269 267 265
Height
5833 5831 5829 5827 5825 5823 5821 5820 5818 5816 5815 5813 5812 5810 5808 5807 5806 5804 5803 5802 5800 5799 5798 5797 5796 5795 5794 5793 5793 5792 5791 5791 5790 5789 5789 5788 5788 5788 5787 5787 5787 5787 5787
5827 5825 5823 5821 5819 5817 5815 5813 5810 5809 5807 5805 5804 5802 5801 5799 5797 5795 5794 5792 5791 5789 5788 5787 5785 5784 5783 5782 5782 5781 5780 5779 5778 5778 5777 5777 5776 5776 5776 5775 5775 5775 5775
5821 5819 5816 5814 5812 5810 5808 5806 5803 5801 5799 5798 5796 5794 5792 5790 5789 5787 5785 5783 5781 5779 5778 5776 5775 5773 5772 5771 5770 5769 5768 5767 5766 5766 5765 5764 5764 5764 5763 5763 5763 5763 5763
5814 5812 5809 5807 5805 5802 5800 5798 5796 5794 5791 5789 5788 5786 5784 5782 5780 5778 5776 5774 5772 5770 5768 5766 5764 5762 5761 5759 5758 5756 5755 5754 5754 5753 5752 5752 5751 5751 5751 5751 5750 5750 5751
5807 5804 5801 5799 5796 5794 5791 5789 5787 5785 5783 5781 5779 5777 5775 5773 5771 5768 5766 5764 5762 5760 5758 5755 5753 5751 5749 5747 5745 5744 5742 5741 5740 5739 5739 5738 5738 5737 5737 5737 5737 5737 5737
5799 5796 5793 5791 5788 5785 5783 5781 5778 5776 5774 5772 5770 5768 5766 5764 5761 5759 5757 5755 5752 5749 5747 5745 5742 5740 5737 5735 5733 5731 5729 5727 5726 5725 5724 5723 5723 5723 5722 5722 5722 5722 5723
5792 5788 5785 5782 5780 5777 5774 5772 5770 5767 5764 5762 5761 5760 5758 5755 5752 5750 5747 5744 5742 5739 5736 5733 5731 5728 5725 5722 5719 5717 5714 5712 5710 5709 5708 5707 5707 5706 5706 5706 5706 5706 5706
5784 5780 5777 5774 5771 5768 5766 5763 5761 5758 5755 5752 5751 5750 5749 5748 5743 5740 5737 5733 5730 5727 5724 5720 5717 5714 5711 5708 5704 5701 5699 5696 5694 5692 5690 5689 5688 5688 5687 5687 5687 5688 5688
5776 5772 5769 5766 5763 5760 5757 5754 5751 5749 5746 5742 5739 5737 5736 5736 5734 5733 5728 5723 5718 5715 5710 5706 5702 5699 5695 5692 5688 5685 5682 5679 5676 5674 5671 5670 5668 5667 5667 5667 5667 5667 5668
5767 5764 5760 5757 5754 5751 5748 5744 5741 5738 5736 5733 5729 5724 5721 5718 5716 5717 5717 5712 5707 5702 5697 5692 5687 5682 5677 5673 5669 5666 5663 5660 5657 5654 5651 5649 5647 5645 5644 5644 5644 5645 5646
5758 5755 5751 5748 5744 5741 5738 5734 5731 5727 5724 5721 5717 5713 5709 5704 5699 5695 5696 5696 5692 5687 5682 5676 5671 5664 5658 5653 5649 5645 5642 5638 5635 5632 5629 5627 5624 5622 5620 5620 5619 5620 5621
5749 5745 5741 5738 5734 5730 5727 5723 5720 5716 5712 5708 5703 5699 5695 5690 5685 5679 5675 5674 5672 5670 5664 5659 5652 5645 5638 5632 5627 5622 5618 5614 5611 5608 5605 5602 5600 5597 5595 5594 5593 5594 5595
5739 5735 5731 5727 5723 5719 5716 5712 5708 5703 5699 5695 5690 5685 5679 5674 5668 5662 5657 5653 5651 5649 5644 5639 5631 5624 5616 5610 5604 5598 5593 5588 5584 5580 5577 5575 5572 5570 5568 5567 5566 5566 5567
5728 5724 5720 5716 5712 5708 5703 5699 5695 5690 5686 5681 5675 5670 5664 5658 5651 5644 5638 5632 5629 5628 5624 5618 5610 5601 5593 5586 5579 5572 5567 5561 5556 5551 5548 5545 5542 5540 5538 5537 5536 5536 5537
5717 5713 5709 5704 5700 5695 5691 5686 5682 5676 5671 5666 5660 5654 5648 5641 5634 5627 5619 5612 5605 5602 5603 5598 5588 5578 5568 5560 5552 5545 5539 5532 5526 5521 5517 5514 5511 5509 5507 5506 5506 5506 5507
5706 5701 5697 5692 5687 5682 5677 5673 5668 5662 5657 5651 5644 5638 5631 5624 5617 5609 5601 5593 5584 5576 5575 5576 5564 5553 5542 5533 5524 5516 5510 5503 5498 5492 5488 5484 5482 5480 5478 5478 5478 5478 5479
5694 5689 5684 5679 5674 5669 5664 5658 5653 5647 5641 5635 5628 5621 5614 5606 5598 5590 5581 5573 5563 5553 5547 5549 5540 5528 5516 5506 5497 5489 5482 5476 5471 5466 5462 5459 5457 5455 5454 5454 5454 5454 5455
5681 5676 5671 5666 5660 5655 5649 5643 5638 5631 5625 5618 5611 5603 5595 5587 5579 5570 5560 5551 5541 5530 5521 5518 5515 5503 5492 5480 5472 5464 5457 5452 5448 5444 5441 5438 5436 5435 5435 5434 5435 5435 5436
5668 5663 5657 5652 5646 5640 5634 5627 5621 5615 5608 5600 5592 5584 5576 5567 5558 5549 5539 5529 5518 5508 5497 5489 5486 5477 5468 5457 5449 5442 5436 5432 5428 5425 5422 5421 5419 5418 5418 5418 5418 5418 5419
5655 5649 5643 5637 5631 5624 5618 5611 5604 5597 5590 5582 5573 5564 5555 5545 5536 5527 5517 5506 5495 5485 5475 5465 5459 5453 5445 5437 5428 5423 5420 5415 5412 5409 5406 5404 5403 5403 5402 5402 5403 5403 5404
5640 5634 5628 5622 5615 5608 5601 5594 5587 5580 5572 5564 5554 5544 5534 5524 5513 5503 5493 5483 5472 5462 5452 5443 5437 5431 5425 5418 5411 5406 5403 5401 5398 5394 5392 5390 5389 5389 5388 5388 5388 5389 5389
5626 5620 5613 5606 5599 5592 5584 5576 5568 5561 5552 5543 5534 5524 5513 5502 5491 5480 5469 5458 5448 5438 5430 5422 5417 5412 5407 5401 5395 5391 5388 5386 5385 5382 5379 5378 5376 5376 5375 5374 5375 5375 5376
5612 5606 5598 5591 5583 5575 5566 5558 5550 5541 5532 5522 5512 5502 5491 5480 5467 5457 5448 5438 5428 5417 5409 5403 5399 5395 5390 5386 5381 5378 5375 5372 5371 5370 5367 5367 5365 5364 5362 5362 5362 5362 5363
5598 5591 5583 5575 5567 5558 5548 5540 5530 5522 5512 5502 5490 5479 5468 5457 5445 5434 5426 5418 5410 5401 5393 5386 5382 5379 5375 5372 5368 5365 5362 5361 5360 5358 5355 5355 5354 5352 5351 5350 5349 5349 5350
5583 5575 5567 5558 5550 5541 5530 5520 5509 5501 5492 5481 5469 5457 5444 5434 5424 5413 5404 5398 5392 5386 5379 5373 5369 5366 5362 5359 5355 5353 5351 5349 5348 5347 5344 5343 5343 5341 5340 5338 5337 5338 5338
5568 5559 5551 5541 5531 5521 5510 5499 5488 5478 5470 5461 5449 5437 5423 5412 5403 5394 5385 5380 5375 5371 5366 5362 5358 5354 5350 5347 5344 5341 5339 5337 5337 5336 5334 5332 5331 5330 5330 5328 5327 5327 5327